Amsterdam, Netherlands

9:19 AM CEST on June 23, 2017 (GMT +0200)
Schiphol

Weather History for EHAM - January, 2014

Change the Weather History Date:

Thursday, January 9, 2014

  Actual Average Record
Temperature  
Mean Temperature 48 °F -  
Max Temperature 52 °F 42 °F 55 °F (1998)
Min Temperature 43 °F 33 °F 17 °F (1997)
Degree Days  
Heating Degree Days 18    
Moisture  
Dew Point 45 °F    
Average Humidity 86    
Maximum Humidity 100    
Minimum Humidity 68    
Precipitation  
Precipitation 0.08 in - - ()
Sea Level Pressure  
Sea Level Pressure 29.65 in    
Wind  
Wind Speed 17 mph ()    
Max Wind Speed 36 mph    
Max Gust Speed 48 mph    
Visibility 7.0 miles    
Events Rain    
Averages and records for this station are not official NWS values.
T = Trace of Precipitation, MM = Missing Value Source: Averaged Metar Reports

Daily Weather History Graph

Daily Weather History Graph

Search for Another Location

Airport or City:

Trip Planner

Search our weather history database for the weather conditions in past years. The results will help you decide how hot, cold, wet, or windy it might be!

Date:

Astronomy

Jan. 09, 2014 Rise Set
Actual Time 8:47 AM CET 4:48 PM CET
Civil Twilight 8:07 AM CET 5:28 PM CET
Nautical Twilight 7:24 AM CET 6:11 PM CET
Astronomical Twilight 6:43 AM CET 6:53 PM CET
Moon 12:25 PM CET (1/9) 2:17 AM CET (1/9)
Length of Visible Light 9h 21m
Length of Day
8h 00m
Waxing Gibbous, 63% of the Moon is Illuminated
Jan 9
Waxing Gibbous
Jan 16
Full
Jan 24
Last Quarter
Jan 30
New
Feb 6
First Quarter

Hourly Weather History & Observations

Time (CET) Temp. Windchill Dew Point Humidity Pressure Visibility Wind Dir Wind Speed Gust Speed Precip Events Conditions
12:00 AM 46 °F - 44 °F 92% 29.89 in 7 mi SSE 8.9 mph - -   Overcast
12:25 AM 46.4 °F 41.1 °F 44.6 °F 93% 29.86 in - SSE 11.5 mph - N/A   Clear
12:55 AM 48.2 °F - 44.6 °F 87% 29.83 in - South 15.0 mph - N/A   Clear
1:00 AM 48 °F - 46 °F 88% 29.85 in 9 mi South 15.7 mph - -   Partly Cloudy
1:25 AM 48.2 °F - 46.4 °F 93% 29.80 in - South 15.0 mph - N/A   Clear
1:55 AM 48.2 °F - 46.4 °F 93% 29.80 in - South 17.3 mph - N/A   Clear
2:00 AM 48 °F - 46 °F 89% 29.80 in 9 mi South 15.7 mph - - Rain Light Rain Showers
2:25 AM 48.2 °F - 46.4 °F 93% 29.77 in 6.2 mi South 16.1 mph - N/A   Scattered Clouds
2:55 AM 48.2 °F - 46.4 °F 93% 29.77 in 6.2 mi South 15.0 mph - N/A Rain Light Rain
3:00 AM 48 °F - 47 °F 94% 29.78 in 7 mi South 15.7 mph - - Rain Drizzle
3:25 AM 48.2 °F - 46.4 °F 93% 29.74 in 3.7 mi South 13.8 mph - N/A Rain Rain
3:55 AM 48.2 °F - 48.2 °F 100% 29.74 in 3.7 mi South 13.8 mph - N/A Rain Rain
4:00 AM 49 °F - 48 °F 96% 29.73 in 4 mi South 13.4 mph - - Rain Rain
4:25 AM 50.0 °F - 48.2 °F 94% 29.71 in 5.0 mi South 15.0 mph - N/A Rain Light Rain
4:55 AM 50.0 °F - 48.2 °F 94% 29.68 in 5.0 mi South 13.8 mph - N/A   Mostly Cloudy
5:00 AM 50 °F - 49 °F 95% 29.68 in 6 mi South 13.4 mph - - Rain Rain
5:25 AM 50.0 °F - 48.2 °F 94% 29.65 in 5.0 mi South 12.7 mph - N/A Rain Light Rain
5:55 AM 51.8 °F - 50.0 °F 94% 29.65 in 6.2 mi South 17.3 mph - N/A   Mostly Cloudy
6:00 AM 51 °F - 50 °F 95% 29.65 in 6 mi South 15.7 mph - - Rain Light Rain Showers
6:25 AM 51.8 °F - 50.0 °F 94% 29.62 in 6.2 mi South 16.1 mph - N/A   Mostly Cloudy
6:55 AM 51.8 °F - 50.0 °F 94% 29.59 in 6.2 mi South 18.4 mph - N/A   Mostly Cloudy
7:00 AM 51 °F - 49 °F 92% 29.61 in 9 mi South 17.9 mph - - Rain Rain
7:25 AM 51.8 °F - 50.0 °F 94% 29.59 in 6.2 mi South 17.3 mph - N/A Rain Light Rain
7:55 AM 51.8 °F - 48.2 °F 88% 29.59 in 6.2 mi SSW 20.7 mph - N/A   Mostly Cloudy
8:00 AM 52 °F - 49 °F 85% 29.59 in 11 mi SSW 22.4 mph - - Rain Rain
8:25 AM 51.8 °F - 48.2 °F 88% 29.56 in 6.2 mi SSW 23.0 mph - N/A   Mostly Cloudy
8:55 AM 51.8 °F - 48.2 °F 88% 29.56 in 6.2 mi SSW 20.7 mph - N/A   Mostly Cloudy
9:00 AM 52 °F - 48 °F 82% 29.58 in 17 mi SSW 20.1 mph - -   Partly Cloudy
9:25 AM 51.8 °F - 48.2 °F 88% 29.56 in 6.2 mi SSW 21.9 mph - N/A   Mostly Cloudy
9:55 AM 51.8 °F - 48.2 °F 88% 29.56 in 6.2 mi SW 24.2 mph - N/A   Mostly Cloudy
10:00 AM 53 °F - 47 °F 75% 29.57 in 17 mi SW 24.6 mph - -   Partly Cloudy
10:25 AM 51.8 °F - 46.4 °F 82% 29.53 in 6.2 mi SW 25.3 mph 36.8 mph N/A   Mostly Cloudy
10:55 AM 51.8 °F - 46.4 °F 82% 29.53 in 5.6 mi SW 31.1 mph 42.6 mph N/A   Light Drizzle
11:00 AM 52 °F - 44 °F 68% 29.56 in 7 mi SW 33.6 mph - - Rain Rain
11:25 AM 51.8 °F - 44.6 °F 76% 29.53 in 6.2 mi SW 33.4 mph 46.0 mph N/A   Scattered Clouds
11:55 AM 51.8 °F - 44.6 °F 76% 29.53 in 6.2 mi SW 35.7 mph 48.3 mph N/A   Mostly Cloudy
12:00 PM 50 °F - 45 °F 77% 29.55 in 8 mi SW 31.3 mph - - Rain Light Rain Showers
12:25 PM 50.0 °F - 44.6 °F 82% 29.53 in 6.2 mi SW 27.6 mph - N/A   Mostly Cloudy
12:55 PM 50.0 °F - 44.6 °F 82% 29.53 in 6.2 mi SW 27.6 mph 39.1 mph N/A   Mostly Cloudy
1:00 PM 51 °F - 45 °F 74% 29.54 in 7 mi SW 31.3 mph - - Rain Light Rain Showers
1:25 PM 50.0 °F - 46.4 °F 87% 29.53 in 3.1 mi WSW 31.1 mph 43.7 mph N/A Rain Rain Showers
1:55 PM 48.2 °F - 44.6 °F 87% 29.53 in 6.2 mi WSW 24.2 mph - N/A   Mostly Cloudy
2:00 PM 49 °F - 45 °F 80% 29.55 in 7 mi WSW 22.4 mph - - Rain Rain
2:25 PM 50.0 °F - 44.6 °F 82% 29.53 in 6.2 mi WSW 21.9 mph - N/A   Scattered Clouds
2:55 PM 48.2 °F - 42.8 °F 82% 29.53 in 6.2 mi WSW 26.5 mph - N/A   Partly Cloudy
3:00 PM 49 °F - 43 °F 71% 29.56 in 11 mi WSW 26.8 mph - -   Partly Cloudy
3:25 PM 46.4 °F 38.1 °F 41.0 °F 81% 29.56 in 6.2 mi West 24.2 mph - N/A   Mostly Cloudy
3:55 PM 46.4 °F 38.5 °F 41.0 °F 81% 29.56 in 5.6 mi West 21.9 mph - N/A Rain Light Rain Showers
4:00 PM 46 °F - 42 °F 80% 29.60 in 11 mi West 22.4 mph - - Rain Rain
4:25 PM 46.4 °F 38.3 °F 42.8 °F 87% 29.59 in 5.6 mi West 23.0 mph - N/A Rain Light Rain Showers
4:55 PM 46.4 °F 39.2 °F 42.8 °F 87% 29.62 in 6.2 mi WNW 18.4 mph - N/A   Mostly Cloudy
5:00 PM 45 °F - 41 °F 80% 29.65 in 11 mi WNW 20.1 mph - - Rain Light Rain Showers
5:25 PM 44.6 °F 36.4 °F 41.0 °F 87% 29.65 in 6.2 mi West 20.7 mph - N/A Rain Light Rain Showers
5:55 PM 44.6 °F 36.1 °F 42.8 °F 93% 29.65 in 6.2 mi West 21.9 mph - N/A Rain Light Rain Showers
6:00 PM 44 °F - 42 °F 92% 29.69 in 3 mi West 20.1 mph - - Rain Light Rain Showers
6:25 PM 44.6 °F 36.4 °F 41.0 °F 87% 29.68 in 6.2 mi West 20.7 mph - N/A   Mostly Cloudy
6:55 PM 44.6 °F 36.4 °F 41.0 °F 87% 29.68 in 6.2 mi West 20.7 mph - N/A   Mostly Cloudy
7:00 PM 45 °F - 41 °F 81% 29.72 in 11 mi West 20.1 mph - - Rain Rain Showers
7:25 PM 44.6 °F 36.6 °F 41.0 °F 87% 29.71 in 6.2 mi West 19.6 mph - N/A   Mostly Cloudy
7:55 PM 46.4 °F 39.2 °F 41.0 °F 81% 29.71 in 6.2 mi West 18.4 mph - N/A   Mostly Cloudy
8:00 PM 46 °F - 41 °F 77% 29.74 in 14 mi West 20.1 mph - -   Unknown Precipitation
8:25 PM 46.4 °F 38.7 °F 41.0 °F 81% 29.74 in 6.2 mi West 20.7 mph - N/A   Mostly Cloudy
8:55 PM 46.4 °F 38.5 °F 41.0 °F 81% 29.74 in 6.2 mi West 21.9 mph - N/A   Mostly Cloudy
9:55 PM 46.4 °F 39.2 °F 41.0 °F 81% 29.77 in 6.2 mi West 18.4 mph - N/A   Scattered Clouds
10:25 PM 46.4 °F 38.7 °F 39.2 °F 76% 29.77 in 6.2 mi West 20.7 mph - N/A   Scattered Clouds
10:55 PM 46.4 °F 38.7 °F 39.2 °F 76% 29.80 in 6.2 mi West 20.7 mph - N/A   Scattered Clouds
11:25 PM 46.4 °F 39.2 °F 39.2 °F 76% 29.80 in 6.2 mi West 18.4 mph - N/A   Scattered Clouds